This is the latest recevied weather packets stored in our database for station/object N5CNB-2. If no packets are shown the sender has not sent any weather packets the latest 10 day(s).
| Time | Temp. | Humidity | Pressure | Rain* | Wind** | Luminosity | Snow |
|---|---|---|---|---|---|---|---|
| 1777765572 | 22.78° C | 54% | 1019.2 hPa | 0 mm | - | - | - |
| 1777764668 | 22.78° C | 50% | 1019.1 hPa | 0 mm | - | - | - |
| 1777763765 | 22.78° C | 51% | 1018.9 hPa | 0 mm | - | - | - |
| 1777762852 | 22.78° C | 51% | 1019 hPa | 0 mm | - | - | - |
| 1777761952 | 22.78° C | 50% | 1018.9 hPa | 0 mm | - | - | - |
| 1777761052 | 22.78° C | 50% | 1018.8 hPa | 0 mm | - | - | - |
| 1777760162 | 22.78° C | 53% | 1018.8 hPa | 0 mm | - | - | - |
| 1777759256 | 22.78° C | 53% | 1018.9 hPa | 0 mm | - | - | - |
| 1777758364 | 22.78° C | 53% | 1019.1 hPa | 0 mm | - | - | - |
| 1777757454 | 22.22° C | 51% | 1019.2 hPa | 0 mm | - | - | - |
| 1777756557 | 22.78° C | 50% | 1019.4 hPa | 0 mm | - | - | - |
| 1777755653 | 22.78° C | 52% | 1019.8 hPa | 0 mm | - | - | - |
| 1777754757 | 22.22° C | 53% | 1019.9 hPa | 0 mm | - | - | - |
| 1777753860 | 22.78° C | 54% | 1020 hPa | 0 mm | - | - | - |
| 1777752956 | 22.22° C | 50% | 1020.1 hPa | 0 mm | - | - | - |
| 1777752053 | 22.22° C | 55% | 1020.5 hPa | 0 mm | - | - | - |
| 1777751157 | 21.67° C | 55% | 1020.5 hPa | 0 mm | - | - | - |
| 1777750257 | 21.67° C | 57% | 1020.5 hPa | 0 mm | - | - | - |
| 1777749355 | 21.67° C | 57% | 1020.6 hPa | 0 mm | - | - | - |
| 1777748454 | 21.11° C | 58% | 1020.9 hPa | 0 mm | - | - | - |
| 1777747550 | 21.11° C | 58% | 1021 hPa | 0 mm | - | - | - |
| 1777746660 | 21.11° C | 59% | 1021.1 hPa | 0 mm | - | - | - |
| 1777745752 | 20.56° C | 63% | 1021.4 hPa | 0 mm | - | - | - |
| 1777744853 | 20.56° C | 57% | 1021.5 hPa | 0 mm | - | - | - |
| 1777743978 | 20.56° C | 57% | 1021.8 hPa | 0 mm | - | - | - |
* Rain latest hour (hover to see other rain measurements)
** Current wind speed in m/s (hover to see current wind gust speed)